Dewpoint
32 32 42 43 44 44 44 43 41 40 38 37 36 34 32 34 33 34 34 36 33 35 38 41 42 43 42 43 45 46 46 45 45 45 44 44 45 44 44 44 44 44 44
32 34 39 40 41 43 43 43 41 41 39 38 37 35 34 34 34 36 34 32 32 35 42 42 41 41 41 41 43 45 46 46 45 44 44 42 42 43 44 45 45 44 45
34 35 34 38 40 42 44 43 42 41 40 39 37 35 33 32 31 31 30 32 33 42 41 41 40 40 40 41 43 45 45 45 46 46 44 42 40 43 43 43 43 43 43
34 36 37 38 39 41 43 43 42 42 42 40 36 34 31 29 31 31 32 32 41 42 41 41 41 40 41 42 44 45 46 47 45 46 46 45 45 42 41 42 42 43 43
33 34 36 37 37 38 39 42 43 44 44 41 38 35 32 31 32 31 31 36 42 41 41 41 41 41 41 42 42 44 45 47 46 45 45 45 44 44 42 41 42 43 43
29 31 34 35 35 37 39 41 42 43 44 43 39 36 32 29 29 29 29 36 41 41 41 41 42 41 41 42 42 44 45 46 46 46 45 45 44 43 43 42 42 42 43
27 30 30 32 35 36 37 40 42 42 43 43 41 37 33 29 28 29 30 35 39 40 41 41 42 42 43 44 45 45 45 45 46 46 45 46 46 46 45 44 43 42 43
26 27 27 29 31 34 36 37 38 39 41 42 41 37 32 29 29 29 29 35 38 39 41 41 40 41 43 43 44 45 45 46 46 46 45 45 46 46 45 44 43 42 42
28 29 30 30 30 30 31 34 37 36 39 41 40 36 31 28 28 28 29 33 37 40 40 40 41 42 43 44 43 43 43 44 44 45 45 45 45 45 44 44 44 42 40
30 30 30 30 31 31 32 32 33 35 36 39 39 36 31 28 27 27 27 28 33 39 39 40 41 41 42 43 43 43 42 41 41 44 45 44 45 45 45 44 44 44 43
30 30 29 30 31 31 32 33 34 35 35 39 38 34 31 26 26 26 26 27 29 36 38 40 40 39 39 40 41 41 42 43 44 43 43 43 43 43 44 45 45 45 44
30 30 29 29 30 31 32 32 35 35 36 39 39 36 30 25 25 24 25 26 26 28 33 38 39 39 39 39 38 38 38 39 39 40 40 41 41 42 42 42 42 43 44
29 29 28 28 30 31 32 32 33 35 37 40 39 34 29 26 25 25 25 25 25 26 28 31 33 36 37 37 38 38 37 37 37 36 36 37 37 38 38 40 41 42 43
29 28 28 29 31 31 31 31 32 35 36 39 40 37 34 30 28 26 25 25 25 26 27 28 31 32 32 32 31 34 34 34 34 34 35 35 34 35 38 40 41 42 43
29 29 30 30 30 30 31 30 31 33 35 38 39 38 36 34 31 29 27 27 26 27 28 29 30 31 31 31 30 32 33 33 33 34 35 35 37 41 42 42 41 41 41
30 30 29 29 28 28 29 30 30 31 33 37 39 39 37 35 33 30 29 28 27 27 27 27 28 29 30 30 30 31 33 34 34 34 35 36 38 40 39 41 41 42 42
29 29 27 27 28 28 29 29 30 29 30 34 39 39 38 35 34 32 30 28 27 26 26 26 27 28 30 31 30 31 32 33 33 33 34 37 37 38 37 38 38 38 40
28 27 27 28 28 28 28 29 29 29 29 31 34 36 37 35 34 32 31 29 28 27 26 27 28 29 29 30 30 30 31 32 32 33 35 37 36 37 36 36 36 36 37
27 28 28 28 28 28 28 28 28 29 29 29 31 32 33 33 33 32 31 30 29 28 28 28 27 28 28 30 30 30 30 32 32 32 34 34 36 35 35 34 33 34 35
28 28 28 28 27 27 28 28 28 29 28 29 31 33 33 33 32 32 31 30 29 28 28 27 28 28 28 30 30 30 30 30 30 30 32 32 33 32 32 30 30 30 32
29 29 28 26 26 28 28 27 27 26 28 30 32 33 33 33 33 33 31 30 28 28 27 26 26 26 26 26 29 30 30 30 30 29 29 31 32 31 30 30 30 29 30
27 26 24 24 26 27 27 25 24 26 27 29 29 30 31 32 32 32 31 29 27 26 25 24 24 24 24 26 28 30 30 30 30 29 29 29 29 30 29 29 29 28 29
24 22 22 22 23 25 24 23 25 26 27 28 27 28 29 30 31 31 31 29 27 26 25 23 23 23 23 22 25 27 29 29 30 30 29 30 30 29 29 28 28 28 26
22 21 21 20 21 22 24 25 26 27 28 28 28 28 29 30 31 31 31 30 28 26 25 24 23 23 23 23 23 24 27 28 30 30 28 28 28 29 28 27 26 25 26
21 21 21 20 21 22 24 26 27 29 28 29 29 29 29 29 30 31 31 31 29 29 27 26 25 24 24 24 25 24 24 25 26 27 26 27 26 24 24 24 24 25 24
20 20 19 20 21 23 24 26 28 28 28 29 29 30 30 30 30 30 30 31 33 33 33 31 30 26 27 27 28 28 29 28 29 28 27 26 25 23 24 24 23 23 24
Wind_Speed
16 15 15 17 16 9 5 2 2 3 2 5 7 5 7 8 8 10 10 10 8 8 10 10 10 11 12 13 12 11 13 11 11 11 14 11 14 16 15 14 14 14 14
18 13 8 7 5 7 8 8 10 9 5 2 4 4 6 7 8 9 6 9 8 11 8 7 9 10 11 13 12 11 10 6 10 8 11 7 9 8 11 8 6 11 11
9 8 4 2 6 6 10 11 9 6 4 5 4 5 7 7 5 7 10 8 11 9 5 7 8 10 10 10 11 11 10 10 11 9 5 6 4 15 7 11 11 8 11
6 6 9 7 5 6 6 7 6 6 7 6 6 6 8 11 5 8 7 12 10 5 4 7 8 10 9 10 9 9 11 10 11 8 4 7 8 6 10 4 11 10 8
5 6 8 6 7 5 6 7 8 9 9 9 9 8 10 9 8 10 11 11 8 6 5 7 8 9 10 10 11 12 11 10 9 9 10 10 10 10 5 13 9 16 12
11 12 11 9 10 9 9 9 10 12 11 11 11 11 12 11 10 11 11 11 8 8 6 7 8 8 9 10 11 11 11 11 11 11 12 11 8 10 8 10 13 15 13
16 16 15 14 14 13 13 11 12 15 14 14 14 14 12 9 10 11 10 11 9 8 9 7 7 7 8 9 10 12 12 12 12 13 14 12 13 11 11 10 13 13 14
14 15 16 16 16 17 16 14 13 15 14 15 16 14 11 10 10 11 10 10 10 9 9 10 9 9 9 9 9 9 9 10 10 12 13 15 14 14 13 10 12 16 14
16 16 16 17 18 19 17 13 15 15 13 14 14 13 11 11 12 12 10 11 11 10 9 8 10 10 11 11 10 10 11 11 11 13 13 13 13 14 14 13 13 12 17
18 17 16 16 16 17 16 14 12 13 15 13 12 13 12 11 11 10 12 12 12 10 10 10 9 10 11 11 10 10 10 12 12 11 10 12 10 11 10 12 13 12 15
18 17 15 14 14 15 16 15 14 14 12 11 11 12 12 11 10 11 12 12 12 10 11 11 10 9 9 10 11 12 13 12 10 10 12 12 12 11 11 10 11 12 12
16 16 13 13 15 17 17 16 15 14 13 12 12 13 12 11 12 12 12 11 11 10 11 11 11 11 10 9 10 11 11 13 12 11 12 13 13 14 12 12 13 13 14
20 17 16 15 16 19 18 17 16 15 14 11 11 12 13 12 14 14 12 11 10 10 10 10 11 11 10 11 11 11 12 11 7 12 14 15 15 15 15 15 15 14 13
18 17 19 17 19 19 20 18 18 14 13 11 12 14 14 14 14 13 12 11 11 11 11 10 11 10 10 10 10 6 8 10 10 12 13 14 15 16 16 15 16 15 14
18 17 19 20 20 19 19 21 17 16 15 13 13 16 14 13 13 14 13 12 11 11 11 12 12 11 10 8 6 6 8 10 12 12 14 14 14 19 20 17 15 16 16
17 19 18 19 18 19 19 18 19 20 16 15 16 15 13 13 14 15 15 14 14 13 12 13 12 12 10 10 12 12 7 10 10 13 15 13 13 12 16 15 16 14 12
17 19 19 19 19 20 20 21 18 18 18 16 15 15 14 14 16 15 15 16 16 14 14 14 13 14 13 11 13 13 8 10 12 13 14 12 11 10 11 13 16 17 18
18 18 19 18 19 18 19 18 18 18 18 17 15 15 15 17 16 15 16 17 15 16 16 15 14 14 13 12 12 12 10 11 12 14 14 11 10 9 12 12 13 14 15
16 14 15 16 17 18 18 18 19 18 18 17 17 16 15 16 17 18 18 17 15 16 17 15 16 16 16 13 13 12 11 12 12 13 13 10 10 10 12 12 12 12 12
13 14 16 15 17 19 17 17 19 18 19 19 20 18 16 15 17 19 19 16 15 18 15 17 16 16 17 13 14 13 11 13 12 11 11 12 12 13 13 12 10 12 11
11 14 14 16 18 20 19 21 22 21 19 18 18 19 17 17 17 19 15 17 17 16 17 18 17 18 18 18 17 17 14 14 13 12 11 10 12 12 12 13 9 10 14
14 13 15 17 16 16 17 18 20 21 21 20 20 21 21 18 16 18 18 17 16 17 19 18 19 16 18 19 18 20 21 16 15 15 11 11 13 14 15 13 11 12 9
13 13 14 18 14 12 10 17 19 19 20 19 19 19 20 19 18 17 19 18 15 16 18 16 18 20 15 17 20 21 21 20 17 13 14 14 15 14 13 14 14 11 5
12 13 15 18 20 14 11 11 17 19 19 19 19 18 17 19 17 16 16 16 16 16 17 18 19 19 16 17 16 16 17 19 17 15 13 11 13 15 13 10 7 7 6
12 11 14 17 17 16 15 13 16 15 17 16 15 16 16 19 19 17 17 17 18 19 20 19 19 18 19 17 17 17 18 17 17 12 10 10 9 11 9 8 7 7 6
14 14 15 15 17 17 18 17 16 17 19 19 16 17 18 19 20 20 22 17 23 28 28 32 27 19 25 22 18 18 20 16 15 12 13 13 12 12 11 10 9 8 9
Wind_Direction
341 7 71 81 88 97 115 152 230 256 286 323 321 320 312 310 318 313 318 326 332 338 331 323 335 344 343 332 324 320 322 317 316 317 313 307 294 286 278 278 278 286 285
29 63 82 102 131 177 185 195 209 221 199 231 278 295 304 297 297 309 328 325 328 323 323 349 341 346 336 330 328 329 321 307 311 303 312 312 315 278 293 305 339 331 338
9 6 10 195 194 210 216 210 221 228 247 229 241 296 317 303 323 334 326 324 318 316 356 4 347 335 328 316 312 315 312 310 306 294 268 311 308 330 302 301 303 295 308
350 344 322 321 298 272 237 234 216 235 243 238 242 272 283 295 292 315 308 316 317 334 5 346 335 325 319 315 317 319 316 302 300 319 306 289 288 306 310 299 305 305 308
270 281 268 274 287 288 263 240 243 251 245 231 233 256 274 278 301 313 317 317 324 335 332 330 322 323 316 309 308 312 309 305 303 305 314 313 311 305 293 309 313 315 308
308 291 270 254 264 264 255 248 246 256 254 244 239 248 266 288 304 312 316 315 310 331 303 309 307 314 311 308 309 295 296 301 305 302 302 294 292 296 295 294 302 300 305
350 342 337 314 292 274 263 253 247 256 250 243 239 241 253 265 278 287 293 301 298 310 304 286 293 299 298 305 307 300 297 299 294 290 290 286 280 275 282 287 290 286 299
337 339 334 330 325 314 300 269 253 257 254 244 238 232 241 255 265 267 276 278 278 282 288 290 293 290 289 288 291 295 295 300 312 295 292 284 274 274 273 270 281 294 290
331 330 326 324 321 318 311 310 285 277 262 251 241 234 239 254 261 265 268 273 276 263 260 278 285 281 279 276 275 277 289 299 304 303 301 302 278 270 271 271 268 269 293
330 327 328 325 326 324 317 308 304 295 279 261 235 231 238 245 251 263 271 276 281 275 268 275 285 296 297 296 296 290 285 290 295 293 314 312 320 327 306 287 274 264 269
319 315 319 322 326 328 330 318 308 303 298 262 243 235 245 245 253 260 269 275 280 278 276 272 269 274 289 299 304 310 311 313 305 312 313 313 315 309 307 311 314 307 280
317 319 317 318 324 330 326 323 311 303 293 274 252 245 245 246 254 259 266 272 275 283 286 288 288 285 284 286 298 302 306 301 307 322 323 317 316 312 307 301 296 292 291
328 327 323 319 327 330 324 317 311 301 294 280 258 251 250 258 264 268 268 270 272 279 287 292 294 295 297 303 301 294 295 287 311 320 313 310 311 305 297 297 287 284 281
326 326 331 331 327 327 324 325 318 303 296 281 264 260 263 267 272 274 272 272 279 283 284 285 285 286 290 292 295 297 309 311 306 294 290 292 293 291 287 290 290 280 276
332 334 326 324 323 325 325 327 327 324 303 282 267 264 267 271 273 273 271 274 276 274 278 284 285 286 288 282 282 283 293 301 299 292 285 276 286 293 287 286 283 278 275
331 326 323 324 323 323 322 325 325 323 320 290 268 266 269 272 272 272 270 272 271 272 274 277 278 282 280 274 282 287 284 290 287 292 292 294 293 300 318 332 326 312 300
326 328 329 325 324 323 321 323 325 328 330 315 286 276 270 272 273 271 270 270 270 271 271 272 275 278 280 280 285 286 279 288 289 285 291 297 302 312 312 319 317 308 298
329 331 327 327 324 322 326 327 332 338 338 333 316 299 283 275 276 274 269 269 266 267 271 273 273 276 276 274 279 277 271 276 284 283 285 280 290 292 308 319 318 314 310
317 316 317 321 328 334 332 333 337 341 341 336 330 324 310 292 281 276 273 268 265 265 263 260 262 263 265 261 265 269 266 265 275 284 281 281 275 287 312 318 318 320 318
315 319 327 333 335 335 335 337 338 337 338 331 324 320 316 301 289 283 280 269 260 265 260 264 261 266 273 269 269 266 261 264 270 278 278 284 278 290 299 305 308 308 313
308 321 328 330 329 331 336 338 337 336 329 326 317 315 310 306 295 290 282 277 269 267 261 259 258 256 255 259 249 244 239 244 258 262 268 270 272 280 287 292 283 284 308
323 331 327 324 323 326 330 330 332 326 327 328 328 325 318 308 299 295 291 280 272 269 268 267 271 259 253 250 247 241 238 232 239 250 254 266 275 278 287 284 282 288 309
313 317 314 318 316 319 321 323 321 322 327 328 326 321 317 312 301 296 292 286 273 266 268 260 263 268 253 248 244 243 240 242 243 245 255 266 276 283 284 280 280 285 283
304 306 309 314 312 316 307 297 308 316 322 321 319 319 315 313 309 295 286 279 274 266 260 260 260 262 261 254 244 237 233 242 240 243 254 262 272 277 272 277 266 258 257
295 293 300 300 301 308 311 310 305 307 313 313 312 320 324 323 313 301 289 284 265 255 263 258 254 259 265 258 242 227 226 228 230 234 241 250 265 273 261 251 258 252 254
293 300 303 298 303 308 308 310 312 316 316 316 315 319 320 320 315 314 311 295 276 271 261 256 253 255 252 259 259 247 236 225 218 229 235 243 253 259 254 249 246 245 253